STARLINK-33959, 63817

Orbit data source: Space-Track

STARLINK-33959, 63817 is a payload satellite owned by SpaceX/Seattle (US) in LEO that was launched on Sun, 04 May 2025 UTC via an FALCON 9 launch vehicle from the Air Force Eastern Test Range (AFETR). Payload-class satellites include a variety of spacecraft equipped with specific instruments for various scientific and technological missions. These include communications satellites like Starlink; space stations such as the ISS; scientific satellites like the Hubble; Earth observation satellites from companies like Planet Labs, Umbra, and HawkEye 360; GPS; miniature CubeSats for education and research; and military/defense satellites.

Loading next visibility...
Identifier
63817, 2025-092P
Orbit
LEO
Country
Flag of USUS
Related business
Manufacturer
SpaceX/Seattle
Mission
Operational Commercial Communications
Bus & Motor
STARLINK V2MO, Unknown motor
Mass
575 kg wet, ~530 kg dry
Launch date (UTC)
2025-05-04 (1 year ago)
Launch vehicle
FALCON 9
Launch site
Air Force Eastern Test Range (AFETR)
Object type
Payload
Rocket body
Debris
Shape & HBR
Box + 2 Pan, 17.7 m
Radar Cross Section
36.964 m², Large (>1 m²)

Expand to show TLE details & history
Last TLE update: 4 hours ago

TLE from 4 hours ago
0 STARLINK-33959
1 63817U 25092P   26125.27550368  .00040083  00000-0  14580-2 0  9990
2 63817  43.0020 212.5531 0003996 293.7996  66.2436 15.27579203 57322
Epoch: 2026-05-05T06:36Z
TLE epoch observation values (Epoch: 2026-05-05T06:36:43.517Z)
Latitude
-0.00007°
Longitude
-109.78098°
Altitude
481.724 km
Speed
7.627 km/s
True Right ascension
14h 10m 12s
True Declination
0° 00' 00"
Sunlit
Object was in full shadow at epoch
Visualization orbit readout
Latitude
Unknown
Longitude
Unknown
Altitude
Unknown
Speed
Unknown
Apparent Right ascension
Unknown
Apparent Declination
Unknown
Sunlit
N/A
Visualization observer readout
Local Sidereal Time
18:55:42
Azimuth
Unknown
Elevation
Unknown
Doppler factor
Unknown
Orbital elements
Apogee altitude
487.739 km
Perigee altitude
482.254 km
Semi-major axis
6,863.133 km
Eccentricity
0.0004
Inclination
43.002°
RAAN
212.5531°
Arg. of periapsis
293.7996°
True anomaly
66.28552°
Mean anomaly
66.2436°
Eccentric anomaly
66.26456°
Mean motion
3.81733 °/min
Orbital period
94.31 mins
BSTAR
0.001458
Loading maneuver chart data...
Computing Atmospheric mass density...
Loading historical data...
Loading historical data...
Loading historical data...
Loading historical data...
Loading historical data...
Loading historical data...
Loading historical data...

Documentation

Showing up to 5 results
|